Regional Weather Roundup
Issued by NWS Boston, MA

Current Version | Previous Version | Text Only | Print | Product List | Glossary On
Versions: 1 2 3 4 5 6 7 8 9 10 11 12 13 14 15 16 17 18 19 20 21 22 23 24 25 26 27 28 29 30 31 32 33 34 35 36 37 38 39 40 41 42 43 44 45 46 47 48 49 50
000
ASUS41 KBOX 190910
RWRBOX

REGIONAL WEATHER ROUNDUP
NATIONAL WEATHER SERVICE BOSTON/NORTON MA
400 AM EST MON NOV 19 2018

NOTE:  "FAIR" INDICATES FEW OR NO CLOUDS BELOW 12,000 FEET WITH NO
SIGNIFICANT WEATHER AND/OR OBSTRUCTIONS TO VISIBILITY.

MAZALL-191000-
EASTERN MASSACHUSETTS

CITY           SKY/WX    TMP DP  RH WIND       PRES   REMARKS
BOSTON         NOT AVBL
BEVERLY        FRZ RAIN  33  29  85 NE3       30.20S
LAWRENCE       LGT RAIN  34  29  82 NE5       30.22F WCI  30
BEDFORD        FRZ RAIN  33  30  88 CALM      30.19F
BLUE HILL        N/A     34  29  82 E10       30.15F WCI  26
NORWOOD        CLOUDY    39  32  76 CALM      30.19F
MARSHFIELD     CLOUDY    39  34  81 CALM      30.19F
PLYMOUTH       CLOUDY    39  33  79 CALM      30.19F
TAUNTON        CLOUDY    39  30  70 CALM      30.18F
NEW BEDFORD    CLOUDY    39  35  86 CALM      30.18F
$$

MAZALL-191000-
CAPE COD AND THE ISLANDS

CITY           SKY/WX    TMP DP  RH WIND       PRES   REMARKS
FALMOUTH       CLOUDY    39  36  87 NE6       30.20F
HYANNIS        MOCLDY    38  35  89 CALM      30.18F
CHATHAM        CLOUDY    37  34  89 CALM      30.21F
PROVINCETOWN   CLOUDY    42  36  79 CALM      30.21F
NANTUCKET      FAIR      44  40  85 SE10      30.18F
MARTHAS VNYRD  CLOUDY    43  40  89 CALM      30.18F
$$

MAZALL-191000-
CENTRAL AND WESTERN MASSACHUSETTS

CITY           SKY/WX    TMP DP  RH WIND       PRES   REMARKS
WORCESTER      FRZ RAIN  30  29  96 E3        30.15F
FITCHBURG      NOT AVBL
ORANGE         LGT SNOW  32  29  88 CALM      30.17F FOG
SPRINGFIELD    LGT RAIN  32  30  93 N3        30.16F
WESTFIELD      FRZ RAIN  32  30  92 N5        30.16F WCI  27
NORTH ADAMS    LGT SNOW  32  31  96 SE6       30.13F FOG     WCI  26
PITTSFIELD     LGT SNOW  31  29  92 CALM      30.10F FOG
$$

RIZALL-191000-
RHODE ISLAND

CITY           SKY/WX    TMP DP  RH WIND       PRES   REMARKS
PROVIDENCE     CLOUDY    39  30  70 NE5       30.18F
NEWPORT        CLOUDY    42  35  76 VRB3      30.16F
BLOCK ISLAND   CLOUDY   N/A N/A N/A S6        30.17F
SMITHFIELD     CLOUDY    36  26  67 E3        30.17F
WESTERLY       CLOUDY    40  33  76 N3        30.17F
$$

CTZALL-191000-
CONNECTICUT

CITY           SKY/WX    TMP DP  RH WIND       PRES   REMARKS
BRADLEY INTL   LGT RAIN  33  31  92 N6        30.17F WCI  28
HARTFORD       CLOUDY    35  28  75 N6        30.17F WCI  30
BRIDGEPORT     CLOUDY    41  32  70 NE3       30.15F
DANBURY        CLOUDY    36  29  75 CALM      30.15S
GROTON         CLOUDY    41  35  79 N5        30.16F
NEW HAVEN      CLOUDY    40  30  67 N5        30.16F
CHESTER        CLOUDY    39  30  70 CALM      30.15F
MERIDEN        CLOUDY    37  27  67 NW3       30.16F
WILLIMANTIC    CLOUDY    35  30  82 CALM      30.17F
OXFORD         CLOUDY    36  30  79 E5        30.14F
$$

MEZ002-015-021-024-NHZ003-005-008-011-012-014-VTZ005-008-191000-
NORTHERN NEW ENGLAND

CITY           SKY/WX    TMP DP  RH WIND       PRES   REMARKS
PORTLAND ME    LGT SNOW  31  30  96 CALM      30.22F FOG
BANGOR ME      CLOUDY    20  17  88 CALM      30.23F
CONCORD NH     LGT SNOW  30  28  92 CALM      30.19F FOG
MANCHESTER NH  LGT SNOW  32  30  92 CALM      30.18F FOG
NASHUA NH      LGT SNOW  31  29  92 CALM      30.20F FOG
PORTSMOUTH NH  LGT SNOW  32  30  93 CALM      30.20F
JAFFREY NH     LGT SNOW  30  30 100 CALM      30.14F FOG
KEENE NH       MIX PCPN  30  28  92 CALM      30.17F FOG
BURLINGTON VT  CLOUDY    33  26  75 S9        30.12F WCI  25
MT. WASHINGTON SNOWSHWR  14  14 100 W37         N/A  VSB 0   WCI  -9
$$

NYZ052-076-191000-
EASTERN NEW YORK

CITY           SKY/WX    TMP DP  RH WIND       PRES   REMARKS
ALBANY         LGT SNOW  32  29  88 N3        30.15F FOG
NEW YORK CITY  MOCLDY    42  34  73 CALM      30.14F
$$

ANZALL-191000-
MARINE OBSERVATIONS

STATION/POSITION TIME  TEMP    WIND        PRES    VSBY  WAVE
                       AIR SEA DIR/SP/G                  HT/PER
                 (UTC) (F)     (DEG/KT/KT) (MB)    (MI)  (FT/S)
BOSTON BUOY      0850   41 51   70/  4/  6 1022.3F         1/10
BUZZARDS BAY     0800   48     190/  8/  9 1022.8F
NANTUCKET SOUND  0850   46 48  150/  6/  8 1022.5F         1
MASS BAY-STELLWA 0804   38 47   20/  4/  6 1022.6F  1 7/8  1/11
ISLE OF SHOALS   0800   34     340/  2/  3 1023.4F
S OF BLOCK IS    0843      55                N/A           2/10
$$

......................KEY.........................
  SKY/WX - SKY CONDITION/PRESENT WEATHER
  TMP    - TEMPERATURE IN FAHRENHEIT
  DWPT   - DEWPOINT IN FAHRENHEIT
  RH     - RELATIVE HUMIDITY IN PERCENT
  WIND   - DIRECTION AND SPEED IN MPH
  PRES   - MEAN SEA LEVEL PRESSURE IN INCHES OF HG
  WCI    - WIND CHILL INDEX
  VSB    - VISIBILITY IN MILES
  HX     - HEAT INDEX
  TC     - TEMPERATURE IN CELSIUS
  VRB    - VARIABLE WIND DIRECTION
  N/A    - NOT AVAILABLE




USA.gov is the U.S. government's official web portal to all federal, state and local government web resources and services.